Wind_Speed
15 15 15 15 18 21 25 28 30 31 33 34 34 35 35 33 32 33 29 18 17 18 17 17 18 19 21 18 19 16 9 15 9 18 32 29 35 32 28 17 20 26 25 32 28
19 19 19 20 23 25 27 28 29 31 33 35 36 34 33 32 32 33 22 14 15 15 19 20 18 18 19 21 18 19 18 16 15 18 23 25 24 29 30 24 28 36 37 35 27
21 20 22 24 26 28 29 30 33 35 35 37 36 36 30 35 33 27 16 11 13 17 20 20 20 20 19 18 18 17 20 22 22 21 18 16 15 17 20 21 22 23 20 22 25
25 25 27 28 29 30 32 33 36 37 38 38 36 30 33 34 32 17 10 10 12 17 21 22 20 19 19 20 19 17 18 21 24 26 27 25 21 18 19 17 18 20 17 18 19
28 28 30 30 30 32 34 36 37 38 41 36 33 29 35 31 22 12 10 9 12 17 20 21 22 23 22 22 20 19 18 21 22 24 25 28 27 22 19 18 16 16 14 13 10
32 34 32 29 31 34 35 36 38 41 40 32 26 31 33 29 18 10 10 10 14 19 20 20 22 25 24 24 25 25 24 21 23 26 27 30 29 25 23 18 18 18 15 11 8
35 34 32 33 34 36 37 38 40 40 34 27 26 30 32 25 15 11 11 12 16 20 22 22 24 25 26 24 25 28 29 28 27 27 28 30 29 27 26 23 18 19 18 11 14
39 37 35 35 37 39 40 39 40 37 30 25 26 28 29 25 16 13 12 14 17 20 20 21 23 25 25 26 27 28 31 30 29 32 34 35 32 28 29 27 21 18 18 16 19
38 37 38 39 40 41 41 41 40 36 30 27 28 28 28 26 20 15 14 15 18 21 21 19 22 24 26 27 29 30 31 35 34 34 36 35 39 32 30 31 24 18 14 15 19
41 42 43 42 43 44 44 42 41 35 30 29 31 32 29 24 22 20 17 17 19 21 21 19 21 24 26 29 31 32 34 36 38 39 40 39 40 42 36 35 32 20 16 18 18
46 46 45 46 47 48 46 45 42 35 32 34 35 34 28 25 23 22 21 20 22 23 23 21 22 24 25 29 31 33 35 37 38 43 47 46 47 40 42 39 34 28 21 21 23
49 49 50 51 50 49 49 47 42 36 34 37 37 35 30 27 27 25 25 23 25 26 25 24 24 26 28 29 32 34 36 38 40 44 46 45 46 39 43 44 41 37 28 25 29
53 53 54 55 55 52 51 47 42 39 39 40 41 37 34 31 30 30 29 27 28 29 30 27 27 27 30 30 34 33 37 38 39 42 47 47 45 40 41 48 50 48 40 32 32
55 55 56 55 54 52 50 46 43 44 45 45 45 39 35 32 34 34 33 31 32 33 34 32 32 31 30 32 35 37 37 40 41 43 49 45 45 43 44 47 54 53 48 44 44
57 57 55 53 51 51 50 47 46 48 48 48 47 42 36 32 36 38 36 34 34 36 37 37 36 35 32 34 36 36 39 42 47 49 52 51 48 45 45 47 55 58 52 56 58
59 59 58 55 53 52 52 51 49 49 48 48 47 44 36 33 37 40 39 37 36 37 40 40 41 41 38 37 38 39 39 44 48 52 55 54 50 49 46 46 49 52 56 63 65
62 60 59 57 57 57 56 56 53 51 49 48 47 45 40 36 37 40 41 40 38 38 42 43 45 44 41 41 43 42 43 47 51 52 55 56 53 52 50 47 46 48 56 58 60
64 62 60 60 60 58 56 56 53 50 47 46 47 45 38 39 40 40 40 40 40 41 41 49 50 51 48 46 48 48 48 50 52 53 55 58 54 54 54 52 51 51 54 60 58
64 63 60 60 58 57 56 54 52 49 47 46 46 44 41 39 43 43 42 42 42 42 43 44 54 59 56 51 49 49 50 54 57 58 55 57 55 56 57 55 52 51 53 56 54
66 64 62 61 60 59 58 56 53 48 47 46 44 41 41 42 43 43 45 44 44 45 46 48 50 57 65 62 55 54 53 60 63 60 59 57 57 58 58 60 57 54 53 53 48
69 66 64 63 62 61 59 57 53 48 43 41 41 40 39 43 44 45 46 47 48 49 50 51 53 57 64 64 65 66 62 62 65 65 63 58 55 55 56 55 56 56 52 51 43
68 66 65 64 60 58 55 54 52 45 42 42 43 43 42 42 46 49 51 51 52 52 54 56 58 59 63 68 66 69 71 71 68 68 67 62 56 56 56 54 55 52 50 46 38
70 65 64 64 59 58 58 57 57 54 49 48 48 49 50 50 51 55 58 57 57 58 58 60 62 61 65 71 71 72 75 74 72 71 67 63 58 56 54 55 56 50 48 43 32
73 69 69 68 67 67 67 65 64 63 61 57 57 56 57 59 59 61 64 64 64 64 66 65 65 66 68 72 78 81 80 78 77 72 68 65 60 57 55 53 53 52 43 39 29
79 77 76 75 74 74 73 74 73 72 71 69 67 66 67 67 68 68 68 71 74 75 72 73 72 72 74 78 79 79 80 81 81 76 71 65 63 61 57 54 52 50 40 32 29
81 80 80 79 77 77 78 77 77 77 78 78 77 76 75 75 76 76 77 78 81 82 83 82 82 82 80 81 81 79 83 81 79 77 74 70 66 61 57 55 54 48 39 31 29
85 84 82 81 82 81 81 80 79 79 80 80 79 77 77 78 77 78 79 81 83 85 88 86 86 86 83 85 83 80 84 81 79 77 74 71 66 61 60 57 54 48 39 30 36
Wind_Direction
259 267 278 293 296 291 292 299 308 316 323 326 326 327 331 332 339 345 343 360 12 7 9 17 17 11 5 6 353 358 315 304 279 284 297 299 297 307 307 304 283 279 288 303 303
263 267 276 283 290 290 296 305 312 316 323 327 326 327 330 331 334 337 339 359 2 13 10 7 8 10 1 354 357 347 341 339 307 305 303 317 307 291 302 300 275 286 300 297 291
264 269 279 285 287 290 297 305 309 315 321 324 324 326 328 330 326 329 329 343 1 8 4 0 357 358 352 349 351 348 340 338 337 341 338 332 317 305 310 306 298 299 322 303 288
263 270 276 281 283 289 296 304 311 316 323 323 323 328 330 330 323 326 317 331 359 2 356 350 348 352 349 348 351 350 348 344 343 335 329 326 328 333 327 319 310 296 294 307 298
264 267 272 276 283 290 298 304 311 317 322 321 322 331 334 334 331 321 302 332 352 357 355 351 345 345 347 345 346 351 348 345 345 338 330 319 320 328 338 328 308 291 290 286 289
263 266 270 278 284 290 297 305 310 315 319 317 324 333 335 333 331 308 301 327 343 348 350 349 344 342 343 343 341 345 346 351 344 338 331 322 321 327 335 332 316 302 291 279 271
260 264 272 279 283 290 296 304 309 316 316 316 325 330 334 328 325 302 299 321 332 339 342 349 345 346 340 339 339 341 339 346 344 337 331 328 323 325 332 339 320 298 290 272 186
263 268 273 279 285 290 295 302 306 312 311 313 317 327 330 325 312 297 302 314 321 329 337 345 346 347 342 337 339 342 338 342 343 336 332 331 327 325 330 334 327 309 291 275 235
263 267 272 278 284 288 292 298 304 305 306 309 315 322 326 321 303 291 289 306 313 319 328 340 342 345 344 342 340 341 337 339 343 337 335 330 326 326 326 331 335 314 304 284 271
263 269 274 279 283 287 290 296 300 298 301 306 311 315 319 308 292 288 285 295 302 312 319 330 335 340 342 343 343 342 335 335 339 335 333 334 328 327 329 331 331 317 303 298 280
267 271 274 278 281 285 290 293 295 292 297 300 307 309 311 296 280 277 278 288 296 304 312 321 325 332 334 339 344 345 337 333 336 334 333 333 334 329 322 324 323 317 303 303 298
267 271 274 277 280 284 287 290 291 290 291 296 302 302 300 293 280 269 269 276 284 295 303 313 316 320 326 333 338 344 338 334 332 332 332 327 330 320 321 319 316 320 311 303 304
268 271 273 276 278 281 284 286 289 288 290 294 297 294 292 291 274 266 266 271 279 289 297 306 311 311 318 325 329 338 340 336 329 325 325 327 326 323 319 316 315 318 318 306 296
265 268 271 274 277 279 281 283 284 285 288 292 293 290 289 285 270 264 262 266 276 283 290 298 306 304 310 318 322 332 334 331 327 322 323 330 325 324 320 315 315 318 317 311 302
265 268 271 274 276 277 279 281 282 282 286 289 288 288 289 281 264 261 264 266 272 282 286 292 298 301 303 308 312 321 328 330 328 324 325 329 329 322 318 316 319 321 317 313 311
265 268 271 273 275 277 278 278 278 281 286 286 285 286 284 275 262 259 262 265 270 277 282 287 293 298 297 299 307 314 324 328 328 324 325 326 325 320 318 316 319 318 314 318 318
266 269 271 274 275 276 276 277 277 279 281 283 282 281 281 275 262 257 260 264 270 278 282 283 287 292 296 299 304 311 320 324 324 323 321 323 324 320 316 318 318 316 316 319 319
267 270 270 273 276 277 276 275 276 277 278 280 280 280 275 268 264 258 263 269 271 275 282 290 292 296 297 298 301 307 317 317 318 320 321 320 320 318 317 322 320 316 321 321 323
267 270 271 274 276 277 276 275 276 279 280 278 276 274 270 264 260 258 261 266 273 278 282 286 292 294 294 292 295 304 310 312 315 317 320 319 318 318 319 320 320 319 323 322 323
267 270 272 274 275 277 278 279 280 280 277 277 275 270 265 261 255 261 265 267 270 272 276 281 286 290 294 296 298 301 307 311 312 316 319 318 319 317 319 319 320 320 323 323 320
268 269 271 273 275 276 278 279 278 275 274 271 271 269 263 258 257 260 264 266 270 272 276 279 284 287 291 296 300 303 305 307 310 313 314 315 317 313 317 317 317 320 322 321 318
265 266 268 269 271 272 272 273 274 275 274 273 274 273 270 264 263 263 266 267 269 271 273 277 280 284 289 293 295 300 304 305 308 309 312 316 315 315 315 315 314 318 319 315 309
264 264 266 268 267 267 268 270 273 273 272 272 272 272 272 272 271 271 272 271 270 272 274 276 280 284 288 292 294 298 300 304 305 306 310 313 312 313 313 312 312 315 315 310 290
265 265 266 267 269 270 272 272 272 273 273 272 271 272 273 273 274 275 276 276 277 276 276 277 280 285 289 292 296 298 300 301 302 305 307 307 310 309 309 309 309 310 311 305 278
262 263 264 265 267 268 269 270 272 272 274 273 273 273 273 274 274 274 276 280 281 280 281 282 284 286 289 292 293 296 298 298 301 303 306 307 306 307 307 307 306 303 305 297 265
262 263 265 265 265 267 268 271 271 272 272 272 273 273 273 274 275 276 277 278 279 281 283 285 287 288 290 291 291 294 293 296 300 302 304 303 303 306 306 304 302 301 300 296 251
262 262 262 263 264 265 266 268 270 271 272 272 271 272 273 274 274 277 279 280 282 283 284 285 286 286 288 288 290 293 293 295 296 298 299 300 302 304 304 301 299 297 293 291 226
Height
11021 11021 11021 11020 11019 11018 11016 11014 11011 11008 11004 11001 10998 10994 10990 10986 10983 10979 10976 10972 10969 10966 10963 10962 10960 10957 10954 10955 10950 10947 10944 10939 10937 10934 10930 10931 10929 10925 10924 10924 10919 10915 10915 10917 10918
11018 11018 11018 11018 11016 11014 11013 11011 11009 11006 11002 10998 10994 10991 10988 10984 10981 10978 10976 10972 10969 10967 10963 10961 10960 10958 10956 10952 10951 10947 10944 10940 10938 10935 10932 10931 10929 10926 10921 10922 10919 10914 10912 10912 10911
11015 11015 11016 11015 11013 11011 11009 11008 11006 11003 11000 10996 10992 10989 10985 10981 10978 10976 10974 10971 10969 10966 10964 10961 10959 10957 10956 10954 10951 10949 10944 10939 10935 10932 10930 10930 10929 10924 10921 10916 10914 10912 10913 10907 10905
11012 11012 11012 11011 11010 11008 11006 11005 11003 11000 10997 10993 10990 10987 10983 10978 10974 10972 10972 10970 10968 10966 10963 10960 10958 10958 10955 10953 10951 10949 10946 10940 10934 10930 10926 10923 10922 10921 10917 10915 10911 10909 10907 10904 10904
11008 11008 11007 11007 11006 11004 11002 11001 10999 10997 10993 10990 10987 10984 10980 10975 10971 10970 10970 10969 10967 10965 10963 10959 10956 10954 10952 10950 10949 10948 10945 10939 10935 10930 10925 10919 10917 10918 10917 10912 10908 10906 10904 10904 10901
11003 11003 11003 11003 11002 11000 10999 10998 10996 10994 10990 10987 10985 10981 10978 10973 10970 10969 10968 10967 10965 10963 10961 10958 10956 10952 10949 10946 10943 10941 10939 10938 10934 10928 10924 10918 10914 10913 10913 10911 10905 10901 10900 10900 10896
10997 10998 10998 10998 10997 10996 10995 10994 10992 10990 10987 10984 10982 10979 10975 10972 10969 10968 10967 10966 10964 10962 10959 10957 10953 10950 10946 10944 10941 10937 10934 10933 10930 10927 10923 10917 10912 10909 10908 10907 10902 10898 10895 10896 10894
10992 10993 10993 10992 10992 10992 10991 10990 10989 10987 10985 10982 10979 10978 10973 10971 10968 10967 10965 10964 10963 10960 10958 10955 10952 10949 10946 10942 10939 10935 10930 10928 10926 10921 10915 10910 10907 10905 10903 10903 10900 10896 10892 10892 10892
10986 10986 10986 10987 10987 10986 10986 10985 10984 10983 10981 10979 10977 10975 10972 10968 10966 10965 10964 10962 10961 10959 10956 10954 10951 10948 10944 10940 10935 10932 10927 10922 10920 10917 10913 10906 10899 10901 10900 10896 10895 10890 10888 10886 10885
10980 10980 10979 10980 10981 10980 10980 10980 10979 10978 10976 10975 10973 10972 10970 10966 10963 10961 10961 10960 10958 10956 10954 10952 10950 10946 10942 10937 10933 10929 10923 10918 10914 10910 10906 10902 10896 10886 10888 10887 10885 10885 10885 10883 10882
10973 10973 10973 10973 10974 10973 10974 10973 10974 10973 10972 10970 10969 10967 10966 10963 10961 10959 10957 10956 10954 10952 10950 10949 10947 10944 10941 10936 10932 10928 10921 10914 10911 10903 10895 10892 10888 10884 10877 10880 10879 10879 10878 10878 10878
10964 10965 10965 10965 10965 10966 10966 10966 10966 10966 10966 10965 10964 10962 10960 10958 10956 10955 10953 10952 10950 10948 10946 10945 10943 10939 10936 10933 10929 10926 10919 10912 10905 10900 10896 10890 10886 10880 10873 10866 10866 10872 10873 10871 10870
10954 10955 10956 10955 10956 10958 10957 10958 10958 10957 10958 10957 10956 10955 10954 10952 10950 10950 10948 10946 10945 10943 10940 10940 10939 10935 10932 10929 10924 10923 10917 10911 10905 10897 10893 10889 10883 10879 10870 10855 10852 10853 10859 10861 10859
10944 10944 10946 10947 10947 10947 10948 10949 10950 10948 10948 10948 10946 10947 10946 10944 10942 10943 10942 10941 10939 10938 10936 10934 10934 10931 10928 10924 10920 10917 10915 10910 10904 10899 10889 10888 10878 10872 10865 10853 10843 10843 10840 10840 10842
10933 10934 10935 10937 10937 10937 10937 10939 10941 10940 10939 10937 10936 10937 10937 10938 10935 10934 10934 10934 10934 10931 10929 10928 10926 10925 10923 10920 10917 10914 10910 10904 10897 10890 10881 10878 10874 10867 10860 10852 10834 10824 10822 10816 10811
10920 10922 10924 10926 10925 10925 10926 10927 10930 10931 10929 10926 10926 10928 10929 10928 10927 10926 10926 10926 10927 10925 10921 10920 10918 10916 10915 10913 10909 10908 10904 10898 10891 10882 10874 10870 10867 10860 10854 10848 10838 10822 10812 10800 10788
10907 10910 10913 10913 10913 10913 10913 10914 10918 10919 10918 10915 10915 10917 10919 10917 10918 10917 10917 10918 10919 10918 10912 10912 10908 10908 10905 10902 10898 10897 10896 10891 10885 10878 10869 10863 10857 10851 10845 10841 10834 10822 10805 10795 10784
10895 10897 10900 10901 10899 10899 10900 10902 10905 10907 10908 10905 10903 10904 10908 10906 10907 10908 10908 10907 10909 10909 10906 10896 10892 10891 10892 10892 10888 10886 10885 10882 10879 10873 10864 10852 10847 10841 10832 10827 10819 10810 10800 10783 10770
10882 10882 10888 10887 10886 10886 10887 10888 10891 10894 10894 10893 10891 10891 10895 10897 10896 10897 10898 10899 10898 10897 10897 10894 10883 10875 10875 10880 10879 10879 10877 10872 10867 10862 10857 10846 10837 10828 10818 10813 10808 10799 10790 10777 10765
10867 10870 10873 10874 10874 10873 10874 10874 10877 10881 10879 10880 10880 10883 10883 10885 10887 10886 10886 10888 10889 10889 10888 10886 10881 10870 10856 10856 10862 10864 10867 10860 10854 10851 10847 10837 10827 10816 10809 10796 10793 10786 10779 10768 10758
10851 10856 10858 10859 10861 10861 10860 10860 10862 10867 10869 10868 10868 10871 10873 10873 10875 10876 10876 10876 10876 10876 10875 10873 10870 10864 10852 10848 10844 10842 10847 10848 10843 10837 10834 10830 10822 10811 10803 10793 10784 10775 10770 10759 10751
10835 10841 10843 10844 10848 10848 10847 10845 10847 10856 10859 10859 10859 10860 10861 10863 10863 10863 10862 10863 10864 10864 10862 10859 10858 10857 10850 10840 10839 10834 10832 10829 10828 10823 10816 10815 10811 10802 10793 10785 10778 10772 10762 10754 10747
10818 10827 10826 10826 10832 10832 10833 10835 10835 10840 10846 10848 10849 10849 10849 10850 10849 10846 10844 10846 10848 10847 10848 10846 10844 10845 10840 10828 10826 10825 10819 10815 10811 10808 10806 10802 10798 10792 10786 10776 10768 10765 10757 10749 10742
10802 10810 10811 10811 10814 10816 10816 10820 10821 10825 10829 10834 10834 10835 10835 10833 10833 10832 10828 10827 10829 10829 10828 10829 10830 10829 10827 10822 10812 10803 10800 10795 10793 10795 10796 10787 10786 10781 10775 10768 10760 10753 10750 10742 10735
10784 10790 10793 10797 10799 10799 10800 10801 10805 10807 10809 10814 10817 10819 10818 10818 10816 10816 10818 10812 10807 10804 10809 10809 10811 10812 10810 10805 10801 10795 10785 10775 10775 10776 10776 10776 10769 10766 10763 10756 10750 10743 10741 10737 10731
10765 10769 10772 10776 10782 10781 10782 10783 10786 10788 10790 10793 10797 10798 10799 10800 10798 10800 10798 10796 10791 10789 10787 10789 10790 10788 10790 10784 10782 10782 10768 10767 10762 10758 10756 10754 10754 10754 10749 10743 10735 10731 10728 10727 10724
10744 10747 10752 10756 10758 10762 10764 10768 10768 10770 10769 10769 10775 10779 10778 10778 10781 10781 10779 10776 10772 10769 10764 10769 10768 10767 10771 10763 10765 10764 10749 10749 10747 10744 10742 10739 10739 10740 10734 10729 10722 10718 10716 10716 10715